Header for Extended Forecast Station List Page

Search by: ID | Name | Date | Parm | Value | Avg | % Avg
Sort by: ID | Name | Date | Parm | Value | Avg | % Avg

Enter search or view all records.

Click on id for station plot
#IDNameDateParmValueAvg% Avg
0HOTI1BRUNEAU-NEAR HOT SPRINGS07-27-2020DISCHARGE (KAF)102246
1LWRI1LITTLE WOOD-LITTLE WOOD DAM07-27-2020INFLOW (KAF)81551
2PRTI1PRIEST-NEAR PRIEST RIVER07-27-2020DISCHARGE (KAF)9017053
3HWRI1BIG LOST-AT HOWELL RANCH NEAR CHILLY07-27-2020DISCHARGE (KAF)203755
4MAGI1BIG WOOD-MAGIC DAM07-27-2020INFLOW (KAF)162858
5CHDW1CHELAN-LAKE CHELAN DAM07-27-2020INFLOW (KAF)15623167
6HALI1BIG WOOD-AT HAILEY07-27-2020DISCHARGE (KAF)375567
7EASW1YAKIMA-AT EASTON07-27-2020DISCHARGE (KAF)517073
8RIDI1WILLOW CREEK-RIRIE DAM07-27-2020INFLOW (KAF)4674
9DEDI1DEADWOOD-NEAR LOWMAN07-27-2020INFLOW (KAF)142074
10TNAW1TEANAWAY-BELOW FORKS07-27-2020DISCHARGE (KAF)81078
11ARDW1ENTIAT-NEAR ARDENVOIR07-27-2020DISCHARGE (KAF)253279
12DWRI1NF CLEARWATER-DWORSHAK DAM07-27-2020INFLOW (KAF)31137383
13SATI1ST MARIES-NEAR SANTA07-27-2020DISCHARGE (KAF)151884
14PARW1YAKIMA-NEAR PARKER07-27-2020DISCHARGE (KAF)14917784
15SERO3JOHN DAY-AT SERVICE CK07-27-2020DISCHARGE (KAF)546484
16PITW1KLICKITAT-NEAR PITT07-27-2020DISCHARGE (KAF)16519286
17LAUW1KETTLE-AT LAURIER07-27-2020DISCHARGE (KAF)13014987
18FCFM8NF FLATHEAD-NEAR COLUMBIA FALLS07-27-2020DISCHARGE (KAF)26430188
19PATW1METHOW-NEAR PATEROS07-27-2020DISCHARGE (KAF)11112688
20NACW1NACHES-NEAR NACHES07-27-2020DISCHARGE (KAF)10011388
21JLKW4SNAKE-JACKSON LAKE AT DAM07-27-2020INFLOW (KAF)13615389
22CLFW1NACHES-NEAR CLIFFDEL07-27-2020DISCHARGE (KAF)758391
23KIOW1YAKIMA-AT KIONA07-27-2020DISCHARGE (KAF)43547791
24PIHI1PORTNEUF-AT POCATELLO07-27-2020DISCHARGE (KAF)303391
25UNDW1WHITE SALMON-NEAR UNDERWOOD07-27-2020DISCHARGE (KAF)14515991
26HHWM8SF FLATHEAD-HUNGRY HORSE DAM07-27-2020INFLOW (KAF)23024992
27LLKW1SPOKANE-AT LONGLAKE07-27-2020INFLOW (KAF)57062392
28IPDI1HENRYS FORK-ISLAND PARK DAM07-27-2020INFLOW (KAF)13214392
29ARAI1SF BOISE-ANDERSON RANCH DAM07-27-2020INFLOW (KAF)677193
30LYDM8KOOTENAI-LIBBY DAM07-27-2020INFLOW (KAF)1566166694
31KERM8FLATHEAD-KERR DAM07-27-2020INFLOW (KAF)1343142494
32HEII1SNAKE-NEAR HEISE07-27-2020DISCHARGE (KAF)1418150394
33PARI1BOISE-NEAR PARMA07-27-2020DISCHARGE (KAF)20822294
34WHBI1SALMON-AT WHITEBIRD07-27-2020DISCHARGE (KAF)1146122494
35ORFI1CLEARWATER-AT OROFINO07-27-2020DISCHARGE (KAF)47750994
36MODO3DESCHUTES-AT MOODY NR BIGGS07-27-2020DISCHARGE (KAF)1050111994
37BONM8BLACKFOOT-NEAR BONNER07-27-2020DISCHARGE (KAF)16617495
38MONO3NF JOHN DAY-AT MONUMENT07-27-2020DISCHARGE (KAF)353695
39UMTW1YAKIMA-AT UMTANUM07-27-2020DISCHARGE (KAF)48550396
40TEAI1TETON-NEAR ST. ANTHONY07-27-2020DISCHARGE (KAF)15416096
41BITM8BITTERROOT-NEAR MISSOULA07-27-2020DISCHARGE (KAF)22122997
42PESW1WENATCHEE-AT PESHASTIN07-27-2020DISCHARGE (KAF)26827897
43BIGI1BOISE-AT GLENWOOD BRIDGE07-27-2020DISCHARGE (KAF)13113597
44GIBO3UMATILLA-NEAR GIBBON07-27-2020DISCHARGE (KAF)131397
45HODO3HOOD-NEAR TUCKER BRIDGE07-27-2020DISCHARGE (KAF)9910397
46ALFW1PEND OREILLE-ALBENI FALLS DAM07-27-2020INFLOW (KAF)3344342798
47ALPW4SNAKE-NEAR ALPINE07-27-2020DISCHARGE (KAF)86288098
48PLDI1SF SNAKE-PALISADES DAM07-27-2020INFLOW (KAF)1203122398
49WSRI1WEISER-NEAR WEISER07-27-2020DISCHARGE (KAF)505198
50ANAW1SNAKE-NEAR ANATONE07-27-2020DISCHARGE (KAF)4649473798
51CLUW1CLE ELUM-CLE ELUM LAKE07-27-2020INFLOW (KAF)767699
52SWAI1SNAKE-BELOW SWAN FALLS07-27-2020DISCHARGE (KAF)2116213799
53CFMM8FLATHEAD-AT COLUMBIA FALLS07-27-2020DISCHARGE (KAF)11961195100
54COEI1COEUR D ALENE-COEUR D ALENE LAKE07-27-2020INFLOW (KAF)243242100
55SIFI1SNAKE-AB EAGLE ROCK NR IDAHO FALLS07-27-2020DISCHARGE (KAF)11391140100
56SRGM8CLARK FORK-AT ST REGIS07-27-2020DISCHARGE (KAF)820812101
57NOXM8CLARK FORK-NOXON RAPIDS DAM07-27-2020INFLOW (KAF)30202953102
58PDTO3UMATILLA-AT PENDLETON07-27-2020DISCHARGE (KAF)1515102
59WEII1SNAKE-AT WEISER07-27-2020DISCHARGE (KAF)32083120103
60BONO3COLUMBIA-BONNEVILLE DAM07-27-2020INFLOW (KAF)3134030393103
61EMMI1PAYETTE-NEAR EMMETT07-27-2020DISCHARGE (KAF)418401104
62RILW1TIETON-RIMROCK LAKE NEAR RIMROCK07-27-2020INFLOW (KAF)6865105
63BRNI1SNAKE-BROWNLEE DAM07-27-2020INFLOW (KAF)33413176105
64CABI1CLARK FORK-CABINET GORGE DAM07-27-2020INFLOW (KAF)33103126106
65CHEI1FALL RIVER-NEAR CHESTER07-27-2020DISCHARGE (KAF)8782106
66MCDW1COLUMBIA-MCNARY DAM07-27-2020INFLOW (KAF)2992828139106
67JDAO3COLUMBIA-JOHN DAY DAM07-27-2020INFLOW (KAF)3036428603106
68TDAO3COLUMBIA-THE DALLES DAM07-27-2020INFLOW (KAF)3092429293106
69BELM8CLARK FORK-BELOW MISSOULA07-27-2020DISCHARGE (KAF)666620107
70BUDW1BUMPING-BUMPING LAKE DAM07-27-2020INFLOW (KAF)2422107
71ANTI1HENRYS FORK-AT ST. ANTHONY07-27-2020DISCHARGE (KAF)344322107
72JKSW4SNAKE-NEAR JACKSON07-27-2020DISCHARGE (KAF)791736107
73AFRI1SNAKE-AMERICAN FALLS RESERVOIR07-27-2020INFLOW (KAF)13451254107
74CHJW1COLUMBIA-CHIEF JOSEPH DAM07-27-2020INFLOW (KAF)2182220298108
75RRHW1COLUMBIA-ROCKY REACH DAM07-27-2020INFLOW (KAF)2265921063108
76PRWW1COLUMBIA-PRIEST RAPIDS DAM07-27-2020INFLOW (KAF)2300421392108
77LEOI1KOOTENAI-AT LEONIA07-27-2020DISCHARGE (KAF)23952191109
78GCDW1COLUMBIA-GRAND COULEE DAM07-27-2020INFLOW (KAF)2244420595109
79WELW1COLUMBIA-WELLS DAM07-27-2020INFLOW (KAF)2233420557109
80OWYO3OWYHEE-OWYHEE DAM07-27-2020INFLOW (KAF)5752109
81TRYO3GRANDE RONDE-TROY07-27-2020DISCHARGE (KAF)221203109
82LGSW1SNAKE-LITTLE GOOSE DAM07-27-2020INFLOW (KAF)64135900109
83LMNW1SNAKE-LOWER MONUMENTAL DAM07-27-2020INFLOW (KAF)64185908109
84WGCM8MF FLATHEAD-NEAR WEST GLACIER07-27-2020DISCHARGE (KAF)274249110
85WANW1COLUMBIA-WANAPUM DAM07-27-2020INFLOW (KAF)2301820957110
86REXI1HENRYS FORK-AT REXBURG07-27-2020DISCHARGE (KAF)420383110
87LGDW1SNAKE-LOWER GRANITE DAM07-27-2020INFLOW (KAF)64245867110
88IHDW1SNAKE-ICE HARBOR DAM07-27-2020INFLOW (KAF)64045813110
89STRM8ST. REGIS-NEAR ST. REGIS07-27-2020DISCHARGE (KAF)3431112
90BERO3MALHEUR-AGENCY VALLEY DAM07-27-2020INFLOW (KAF)98112
91CSDI1NF PAYETTE-CASCADE DAM07-27-2020INFLOW (KAF)7769112
92ABOM8CLARK FORK-ABOVE MISSOULA07-27-2020DISCHARGE (KAF)447386116
93MYKO3MCKAY CREEK-NEAR PILOT ROCK07-27-2020DISCHARGE (KAF)11116
94SHYI1SNAKE-NEAR SHELLEY07-27-2020DISCHARGE (KAF)1067915117
95MACI1BIG LOST-MACKAY RESERVOIR NEAR MACKAY07-27-2020INFLOW (KAF)3025119
96TONW1OKANOGAN-NEAR TONASKET07-27-2020DISCHARGE (KAF)370305121
97BFTI1SNAKE-NEAR BLACKFOOT07-27-2020DISCHARGE (KAF)727589123
98SNAI1SNAKE-AT BLACKFOOT07-27-2020DISCHARGE (KAF)726585124
99RCCM8ROCK CREEK-NEAR CLINTON07-27-2020DISCHARGE (KAF)8666130
100TCHW1WALLA WALLA-NEAR TOUCHET07-27-2020DISCHARGE (KAF)1813131
101WRMO3MALHEUR-WARM SPRINGS DAM07-27-2020INFLOW (KAF)75139
102KADW1KACHESS-KACHESS DAM07-27-2020INFLOW (KAF)2719142
103KEDW1YAKIMA-KEECHELUS LAKE07-27-2020INFLOW (KAF)4229146
104DLGM8CLARK FORK-AT DEER LODGE07-27-2020DISCHARGE (KAF)7247151
105SPDI1CLEARWATER-AT SPALDING07-27-2020DISCHARGE (KAF)17751050169
106MILI1SNAKE-AT MILNER07-27-2020DISCHARGE (KAF)353167211
107UMAO3UMATILLA-NEAR UMATILLA07-27-2020DISCHARGE (KAF)6614470
108BFEI1KOOTENAI-AT BONNERS FERRY07-27-2020STAGE (FT)MMM
109DRMM8CLARK FORK-NR DRUMMOND07-27-2020DISCHARGE (KAF)176MM
110HOPI1PEND OREILLE-PEND OREILLE LAKE NR HOPE07-27-2020LAKE ELEVATION (FT)MMM
111SPOW1SPOKANE-AT SPOKANE07-27-2020DISCHARGE (KAF)398MM
112SJMI1ST JOE-AT ST MARIES07-27-2020STAGE (FT)MMM
113CIBW1COLUMBIA-AT INTL BOUNDARY07-27-2020DISCHARGE (KAF)21682MM
114LUCI1BOISE-LUCKY PEAK DAM07-27-2020INFLOW (KAF)374MM
115BULO3BULLY CREEK-BULLY CREEK DAM07-27-2020INFLOW (KAF)M0M